EUTELSAT 117 WEST B

Last updated on Thu Nov 21 2024 00:02:43 GMT+0000 (Coordinated Universal Time)

1 41589U 16038B 24325.20053532 -.00000010 00000+0 00000+0 0 9991 2 41589 0.0064 148.2833 0000375 321.2450 265.4070 1.00271573 30913
UTC large
Height (km)
Speed (km/s)
/
Latitude / Longitude
Inclination (degrees)
Orbital Period (minutes)
Azimuth
Elevation
Range (km)
Doppler Factor

Next 0 passes for location: London (51.5072 / 0.1276)

Sorry there are no passes over London.